Weather History for LTBA - December, 2012

Change the Weather History Date:

Friday, December 7, 2012

  Actual Average Record
Temperature  
Mean Temperature 45 °F -  
Max Temperature 48 °F 48 °F 62 °F (2008)
Min Temperature 41 °F 40 °F 37 °F (2003)
Degree Days  
Heating Degree Days 20    
Moisture  
Dew Point 39 °F    
Average Humidity 79    
Maximum Humidity 93    
Minimum Humidity 59    
Precipitation  
Precipitation 0.08 in - - ()
Sea Level Pressure  
Sea Level Pressure 29.88 in    
Wind  
Wind Speed 9 mph ()    
Max Wind Speed 18 mph    
Max Gust Speed 24 mph    
Visibility 6.3 miles    
Events Rain    
Averages and records for this station are not official NWS values.
T = Trace of Precipitation, MM = Missing Value Source: Averaged Metar Reports

Daily Weather History Graph

Daily Weather History Graph

Search for Another Location

Airport or City:

Trip Planner

Search our weather history database for the weather conditions in past years. The results will help you decide how hot, cold, wet, or windy it might be!

Date:

Astronomy

Dec. 07, 2012 Rise Set
Actual Time 7:16 AM EET 4:36 PM EET
Civil Twilight 6:45 AM EET 5:07 PM EET
Nautical Twilight 6:10 AM EET 5:41 PM EET
Astronomical Twilight 5:37 AM EET 6:14 PM EET
Moon 12:11 AM EET (12/7) 12:25 PM EET (12/7)
Length of Visible Light 10h 21m
Length of Day
9h 20m
Last Quarter, 42% of the Moon is Illuminated
Dec 7
Last Quarter
Dec 13
New
Dec 20
First Quarter
Dec 28
Full
Jan 5
Last Quarter

Hourly Weather History & Observations

Time (EET) Temp. Windchill Dew Point Humidity Pressure Visibility Wind Dir Wind Speed Gust Speed Precip Events Conditions
12:20 AM 44.6 °F 38.8 °F 42.8 °F 93% 29.83 in 5.0 mi North 11.5 mph - N/A Rain Light Rain Showers
12:50 AM 44.6 °F 39.2 °F 42.8 °F 93% 29.83 in 6.2 mi North 10.4 mph - N/A   Mostly Cloudy
1:20 AM 44.6 °F 40.2 °F 41.0 °F 87% 29.83 in 6.2 mi NNE 8.1 mph - N/A   Mostly Cloudy
1:50 AM 44.6 °F 40.7 °F 41.0 °F 87% 29.83 in 6.2 mi NNE 6.9 mph - N/A   Mostly Cloudy
2:00 AM 45 °F - 40 °F 76% 29.84 in 6 mi NNE 6.9 mph - -   Partly Cloudy
2:20 AM 44.6 °F 39.7 °F 41.0 °F 87% 29.83 in 6.2 mi North 9.2 mph - N/A   Mostly Cloudy
2:50 AM 44.6 °F 39.7 °F 41.0 °F 87% 29.83 in 6.2 mi NNE 9.2 mph - N/A   Mostly Cloudy
3:20 AM 44.6 °F 39.7 °F 41.0 °F 87% 29.80 in 6.2 mi North 9.2 mph - N/A   Mostly Cloudy
3:50 AM 46.4 °F 42.9 °F 41.0 °F 81% 29.80 in 6.2 mi NNE 6.9 mph - N/A   Mostly Cloudy
4:20 AM 46.4 °F 42.4 °F 41.0 °F 81% 29.80 in 6.2 mi NNE 8.1 mph - N/A   Mostly Cloudy
4:50 AM 46.4 °F 41.1 °F 39.2 °F 76% 29.80 in 6.2 mi NNE 11.5 mph - N/A   Mostly Cloudy
5:20 AM 46.4 °F 41.9 °F 39.2 °F 76% 29.80 in 6.2 mi NNE 9.2 mph - N/A   Mostly Cloudy
5:50 AM 46.4 °F 43.5 °F 39.2 °F 76% 29.80 in 6.2 mi NNE 5.8 mph - N/A   Mostly Cloudy
6:20 AM 46.4 °F 42.4 °F 39.2 °F 76% 29.80 in 6.2 mi NNE 8.1 mph - N/A   Mostly Cloudy
6:50 AM 46.4 °F 42.4 °F 41.0 °F 81% 29.80 in 6.2 mi NNE 8.1 mph - N/A   Mostly Cloudy
7:20 AM 46.4 °F 41.9 °F 41.0 °F 81% 29.80 in 6.2 mi NNE 9.2 mph - N/A   Mostly Cloudy
7:50 AM 46.4 °F 41.9 °F 41.0 °F 81% 29.80 in 6.2 mi NNE 9.2 mph - N/A   Mostly Cloudy
8:00 AM 47 °F - 41 °F 73% 29.81 in 6 mi NNE 9.2 mph - -   Partly Cloudy
8:20 AM 46.4 °F 41.1 °F 42.8 °F 87% 29.80 in 6.2 mi North 11.5 mph - N/A   Mostly Cloudy
8:50 AM 46.4 °F 40.7 °F 41.0 °F 81% 29.80 in 6.2 mi NNE 12.7 mph - N/A   Mostly Cloudy
9:20 AM 46.4 °F 40.1 °F 39.2 °F 76% 29.80 in 6.2 mi NNE 15.0 mph - N/A   Mostly Cloudy
9:50 AM 48.2 °F - 39.2 °F 71% 29.80 in 6.2 mi NNE 12.7 mph 24.2 mph N/A   Mostly Cloudy
10:20 AM 46.4 °F 39.8 °F 39.2 °F 76% 29.80 in 6.2 mi NNE 16.1 mph - N/A   Mostly Cloudy
10:50 AM 46.4 °F 39.2 °F 39.2 °F 76% 29.83 in 6.2 mi NNE 18.4 mph - N/A   Mostly Cloudy
11:20 AM 46.4 °F 40.1 °F 41.0 °F 81% 29.83 in 6.2 mi NNE 15.0 mph - N/A Rain Light Rain Showers
11:50 AM 44.6 °F 38.1 °F 39.2 °F 81% 29.83 in 6.2 mi NNE 13.8 mph - N/A Rain Light Rain Showers
12:20 PM 44.6 °F 37.8 °F 39.2 °F 81% 29.83 in 6.2 mi NNE 15.0 mph - N/A Rain Light Sand
12:50 PM 44.6 °F 38.1 °F 37.4 °F 76% 29.83 in 6.2 mi NNE 13.8 mph - N/A Rain Light Rain Showers
1:20 PM 44.6 °F 38.1 °F 39.2 °F 81% 29.86 in 6.2 mi NNE 13.8 mph - N/A Rain Light Rain Showers
1:50 PM 44.6 °F 38.4 °F 37.4 °F 76% 29.86 in 6.2 mi NNE 12.7 mph - N/A Rain Light Rain Showers
2:00 PM 44 °F - 38 °F 71% 29.87 in 6 mi NNE 12.7 mph - - Rain Light Rain Showers
2:20 PM 44.6 °F 38.1 °F 37.4 °F 76% 29.86 in 6.2 mi North 13.8 mph - N/A Rain Light Rain Showers
2:50 PM 44.6 °F 38.1 °F 37.4 °F 76% 29.89 in 6.2 mi NNE 13.8 mph - N/A Rain Light Rain Showers
3:20 PM 44.6 °F 39.7 °F 37.4 °F 76% 29.89 in 6.2 mi NNE 9.2 mph - N/A Rain Light Rain Showers
3:50 PM 44.6 °F 39.2 °F 37.4 °F 76% 29.92 in 6.2 mi NNE 10.4 mph - N/A Rain Light Rain Showers
4:20 PM 44.6 °F 40.2 °F 37.4 °F 76% 29.92 in 6.2 mi NNE 8.1 mph - N/A Rain Light Rain Showers
4:50 PM 44.6 °F 39.2 °F 35.6 °F 71% 29.92 in 6.2 mi NNE 10.4 mph - N/A   Mostly Cloudy
5:20 PM 44.6 °F 39.7 °F 37.4 °F 76% 29.95 in 6.2 mi NE 9.2 mph - N/A   Mostly Cloudy
5:50 PM 44.6 °F 40.2 °F 35.6 °F 71% 29.95 in 6.2 mi NE 8.1 mph - N/A   Mostly Cloudy
6:20 PM 44.6 °F 40.7 °F 37.4 °F 76% 29.95 in 6.2 mi NE 6.9 mph - N/A   Mostly Cloudy
6:50 PM 44.6 °F 40.7 °F 35.6 °F 71% 29.98 in 6.2 mi NE 6.9 mph - N/A Rain Light Rain Showers
7:20 PM 44.6 °F 40.7 °F 37.4 °F 76% 29.98 in 5.6 mi Variable 6.9 mph - N/A Rain Light Rain Showers
7:50 PM 44.6 °F 42.2 °F 35.6 °F 71% 29.98 in 6.2 mi NNE 4.6 mph - N/A Rain Light Rain Showers
8:00 PM 45 °F - 35 °F 59% 30.00 in 12 mi NNE 4.6 mph - - Rain Light Rain Showers
8:20 PM 42.8 °F 37.0 °F 39.2 °F 87% 29.98 in 6.2 mi NNW 10.4 mph - N/A Rain Light Rain Showers
8:50 PM 42.8 °F 36.6 °F 37.4 °F 81% 29.98 in 6.2 mi North 11.5 mph - N/A Rain Light Rain Showers
9:20 PM 42.8 °F 36.6 °F 37.4 °F 81% 30.01 in 6.2 mi North 11.5 mph - N/A Rain Light Rain Showers
9:50 PM 42.8 °F 37.5 °F 37.4 °F 81% 30.01 in 6.2 mi NNW 9.2 mph - N/A Rain Light Rain Showers
10:20 PM 42.8 °F 37.5 °F 37.4 °F 81% 30.04 in 6.2 mi NNW 9.2 mph - N/A   Mostly Cloudy
10:50 PM 42.8 °F 37.5 °F 39.2 °F 87% 30.04 in 6.2 mi NNW 9.2 mph - N/A   Mostly Cloudy
11:20 PM 42.8 °F 37.5 °F 39.2 °F 87% 30.04 in 6.2 mi NNW 9.2 mph - N/A   Mostly Cloudy
11:50 PM 41.0 °F 35.2 °F 37.4 °F 87% 30.04 in 6.2 mi North 9.2 mph - N/A   Mostly Cloudy